indice_tiempo,comercio_pct_brasil,comercio_pct_canada,comercio_pct_chile,comercio_pct_estados_unidos,comercio_pct_mexico,comercio_pct_uruguay,comercio_pct_china,comercio_pct_india,comercio_pct_japon,comercio_pct_reino_unido,comercio_pct_suiza,comercio_pct_zona_euro,comercio_pct_vietnam
1997-01-01,29.562711194524947,0.7971938443313659,5.098275756573034,20.522159489686448,2.3017291285807966,3.3383857086833877,2.32377498995418,0.8541468827940867,2.321106857787324,2.448983836188323,0.7954962280289948,29.620689057356458,0.015347025510648515
1997-02-01,29.616395919935044,0.7829321503915582,5.076667483268678,20.578187690457842,2.3331000658147736,3.3271197761118496,2.285084309124196,0.8655211934071051,2.365072161437818,2.487198828354415,0.7733912089554004,29.493779864352124,0.015549348389186994
1997-03-01,29.723597953680923,0.7669124382883754,5.012082993459759,20.672185049866712,2.3027943020708226,3.2680674372107075,2.235410291389007,0.8923767601351239,2.3926631814317036,2.5576761766412757,0.7397215763882404,29.42413029310759,0.012381546329750305
1997-04-01,29.7501768546872,0.7685570869412338,4.880200559538874,20.63017458693856,2.343124051886844,3.2794846315336326,2.243954899383651,0.9223630133177413,2.428928007067371,2.6088658439582453,0.7106222342114975,29.419679097588148,0.013869132946988173
1997-05-01,29.93278778283187,0.7747965065169783,4.8207764523510175,20.653401696192535,2.2673210651481424,3.310421351748246,2.2631894058445465,0.9172524042678581,2.4270787996135654,2.5339284593878664,0.6951781711599546,29.38957675284082,0.014291152096593747
1997-06-01,30.227000007536763,0.8121500816926789,4.711629165331094,20.770235048676586,2.136985738592672,3.292246202375116,2.24517298456947,0.9643605510016999,2.54864348475394,2.6007028270827606,0.696258841879326,28.97916671980538,0.015448346702506381
1997-07-01,30.375900504966385,0.7607871770429525,4.715206271910091,20.692554267679345,2.102915059067112,3.298403247957017,2.518025183585542,0.9229530056411664,2.5957234160014284,2.682156064337555,0.7028342193527477,28.6044156851962,0.028125897262459575
1997-08-01,30.552405608989925,0.8182185579026418,4.688417619992409,20.698063647150295,2.092650998704625,3.3073742599497513,2.756507005838426,0.9320093771223917,2.70972039315873,2.683890312062181,0.6876145488348228,28.043774733606877,0.02935293668692733
1997-09-01,30.803426598159344,0.8755595490473295,4.68322942815776,20.740254135305847,1.988463285733334,3.3181110083867096,2.9250902681123185,0.8687665486081683,2.761598272511989,2.676005767047998,0.6550713800965493,27.674967410621736,0.029456348210916222
1997-10-01,31.071770217282932,0.892408411684087,4.674252721581427,20.918395805986318,1.9843572998630181,3.3388812671058203,2.9048217352188943,0.874375102842411,2.789444858711193,2.610822971090013,0.6241891626891646,27.28658651527417,0.029693930670544974
1997-11-01,31.50289039662727,1.002798791862466,4.67210189007167,20.9086851879966,1.970481485064876,3.346444554675141,2.7708130928110037,0.8800351303383601,2.821955930432497,2.604475418565679,0.6132397946197509,26.87626872840053,0.02980959853415238
1997-12-01,31.79564639040595,0.9709696717004191,4.641850697700105,20.903231842169326,1.9626268371331987,3.4153711333197934,2.8541732949735077,0.7541713309001333,2.8806415230764517,2.630790808351286,0.6154724500487218,26.544348847737258,0.030705172483848492
1998-01-01,31.84842934134373,0.9480740577906032,4.639891135608749,21.206942815792804,1.9852033352742573,3.4759236420319173,2.75639942775101,0.7200467052050564,3.002674441020823,2.631995986210849,0.6214081235036574,26.13137593015695,0.03163505830958672
1998-02-01,32.2145807507792,1.1314815162294183,4.601402480405882,21.167170262035274,2.003506055152895,3.510059383811418,2.7469655399611543,0.6841260884965094,2.985048855248556,2.6079306508993856,0.6320889767015002,25.68401641245656,0.03162302782224106
1998-03-01,32.29449498730107,1.1250953762115654,4.58181817065585,21.180291080421622,1.9905844662505012,3.6113566030177062,2.7941340390997715,0.6847558433833272,3.049940547389516,2.5959044563461977,0.6570512193723935,25.39660440849944,0.037968802051035824
1998-04-01,32.486766929095054,1.1939057121882086,4.602955052941579,20.97524301731339,1.8948279942442767,3.620590046899917,2.8598737229955518,0.6092063409164644,3.241426227472165,2.5753872039651498,0.6682638497561112,25.231530004266503,0.04002389794561972
1998-05-01,32.60147260475639,1.210883498574598,4.598974358856474,20.956577621663513,1.8792891663604292,3.622193076049799,2.932333487718625,0.6508660849087239,3.2831316219453,2.5749558310703673,0.6950211766187308,24.953722609777145,0.040578861699912906
1998-06-01,32.552966380374585,1.1902999874111917,4.705060071314456,20.812769814527474,1.9058634448099674,3.661035020389871,2.963004910521324,0.6761878897112176,3.265159307528593,2.4840370370800033,0.7122818036911767,25.02808516230493,0.04324917033521585
1998-07-01,32.58837483192291,1.192494263910685,4.624912278349838,20.89291545156304,1.9035408768846545,3.7086408419843164,2.773865784551996,0.7055618395693278,3.237278324040492,2.4479841757886294,0.7090533362794703,25.17846102524264,0.03691696991199055
1998-08-01,32.48968625990552,1.1378902077039714,4.604751270285317,20.907825919247102,1.897930148338398,3.7740738086444825,2.628585095191187,0.7637120275986411,3.1524257901260904,2.4289940311822824,0.7075220239059171,25.468049068555157,0.03855434931593221
1998-09-01,32.3849565544567,1.1114642838521707,4.6249011403153455,20.800234971846947,1.9041999745742595,3.7968028462142382,2.569180039341172,0.814710389214767,3.1205248611987364,2.3994301875450748,0.7035957978095991,25.72650170333949,0.04349725029149123
1998-10-01,32.093149496101596,1.0762269172641952,4.574460845369222,20.721817616005865,1.9549595377264974,3.8034857182425448,2.5241552579917674,0.9227554849802314,3.0851638950761426,2.3472498743515366,0.7142799559651207,26.13714025939112,0.045155141534155806
1998-11-01,31.78810273417271,1.0067681721156758,4.544024303836848,20.75380119195606,1.9515137756679646,3.801290564121811,2.461604229423689,1.0464804709436775,3.0892448903849368,2.300399843576529,0.719151644543944,26.489897241806684,0.04772093744946723
1998-12-01,31.66052462898719,0.9644486587542657,4.5372760820743885,20.808350589798337,1.9562053041336955,3.8085048706676576,2.455449029500111,1.0665713294760923,3.0254351319317334,2.2677916244275957,0.719335353699908,26.684424248951085,0.04568314759794223
1999-01-01,31.659636602504335,1.0020780860566483,4.518796932188763,20.474204688852478,1.9180836947895157,3.8241019699336474,2.4902969544529276,1.0897627685266624,2.9019665703083084,2.2496720802755776,0.7349853435145968,27.09038014613714,0.04603416245939788
1999-02-01,31.17082687421536,0.8116378645664689,4.576085001551989,20.599680441093373,1.9067194522070974,3.8488277433482954,2.4965299786772692,1.116351133945544,2.9252653488836207,2.2819863088726384,0.7357444113784978,27.48290016002962,0.04744528123022473
1999-03-01,30.79236568720346,0.918300385948129,4.615412650610893,20.525937723480837,1.9034452199003633,3.8156237887826414,2.538653410044235,1.1968116455684534,2.884943047267001,2.2264524649217567,0.7406725041843597,27.79538947554035,0.04599199654752006
1999-04-01,30.4364401309069,0.8709239976878765,4.6214268196396056,20.61417549338719,1.9260275210893845,3.825213291042772,2.581679860646489,1.3845575891157689,2.708655470745722,2.172684451321112,0.7328240389842683,28.083107837393623,0.042283498039302155
1999-05-01,30.194947934023944,0.8495791324352987,4.6362157356073626,20.826413268711644,1.9472419854219876,3.783650244047299,2.4950104511494886,1.4936260943131507,2.7086437780318313,2.138784577217264,0.7212722910120674,28.163164149862194,0.041450358166479497
1999-06-01,29.902691240275427,0.8179157636414108,4.624979717655188,21.021104588382475,1.9225940046691505,3.7806871508600923,2.4495781033870885,1.5391595304137848,2.6349066849500384,2.128059467774841,0.7087909302107201,28.405505143290014,0.06402767448978114
1999-07-01,29.495251841866203,0.8149046812021558,4.668091921923762,20.996304964659814,1.958842419728185,3.7556512795868584,2.400726882839398,1.5166639268306403,2.6488452906252853,2.091199353793425,0.7041111689951891,28.891664910913377,0.05774135703571859
1999-08-01,29.142587821569094,0.8066997789171754,4.669519403866272,21.05101765595303,1.9757854208835128,3.6874815585653296,2.3871287996909936,1.521621230337045,2.664828009432514,2.0692512441710176,0.7347425545032039,29.213103462014914,0.0762330600959127
1999-09-01,28.766622414783154,0.792359417321749,4.624700219485529,21.625805147316598,1.9808267598904437,3.6593313087201964,2.306194809409721,1.6097841534955173,2.6749104544128985,2.0981987783199325,0.8079639470774542,28.98135172084254,0.07195086892428128
1999-10-01,28.611616130187432,0.813231326832625,4.694684084779419,21.853000889044527,1.9995039845565186,3.657049805696653,2.259857639006594,1.529625547352084,2.6850152139304355,2.086072235663936,0.817896189442724,28.880747877634665,0.11169907587238881
1999-11-01,28.512854299612368,0.8191625390109579,4.755433594853762,21.90633088992792,2.013897196016081,3.660818625957729,2.274734706083423,1.4450030618422975,2.7232737952895665,2.0623519162423656,0.83537145708019,28.880772923455638,0.10999499462771305
1999-12-01,28.442991728411304,0.9018096292798012,4.775190646648787,22.00190597542877,2.056794395064228,3.663164569332963,2.2602063203159446,1.5048008539028215,2.7134823363659137,2.0112997971469704,0.8330701295960788,28.724510407083944,0.11077321142248464
2000-01-01,28.422634247688705,0.8798360151401572,4.82147665542196,22.201551103008267,2.1192771227335485,3.634025432370688,2.3372568928516135,1.549126851393792,2.757080437782937,1.9733349645636997,0.8271490064894326,28.365897289216793,0.11135398133841623
2000-02-01,28.63847968814918,0.9344090710902547,4.805502249476294,22.076611387340478,2.126151974017784,3.651449947450375,2.420046637076237,1.5639967859352515,2.7412097609000465,1.9455663976883522,0.8724917231469939,28.112395259653507,0.11168911807526194
2000-03-01,28.814547020794805,0.8683870809690973,4.827135993131846,22.105345838425496,2.1531037932113906,3.6576077547163677,2.4026161443340617,1.5923362564737635,2.7640906881627707,1.9387091869944655,0.9077961229222549,27.861187956836318,0.10713616302737321
2000-04-01,29.014762742782093,0.8826337391031293,4.850519169542167,22.117822957394626,2.1886658113632227,3.6698232043212715,2.3130788417574157,1.5446325073256542,2.7488730294186703,1.9302951877099879,0.940050592220195,27.68691919272651,0.11192302433506235
2000-05-01,29.00735721644202,0.9175131135172404,4.819261351680354,21.93376403739302,2.2024044681336705,3.6743085973122978,2.2725188136805863,1.42659071903849,2.757485015300196,1.9663452532346757,0.9437846136204812,27.965981426297954,0.11268537434901371
2000-06-01,29.258278766640093,0.9555820300192815,4.872254399330759,21.950468297219984,2.2785352580306255,3.6868598449999994,2.3641822631601594,1.3871533686103172,2.75845758372641,1.9323915006438561,0.9391738507733954,27.53008546317017,0.0865773736749385
2000-07-01,29.685247668830225,1.0016348977271972,4.85389941836448,22.001586463375006,2.27790883488002,3.691894634105276,2.4213154947627666,1.5429584493016282,2.786675957956838,1.9225964608649646,0.933455823035171,26.766809094120045,0.1140168026763696
2000-08-01,30.187075934974974,1.026961535649777,4.903466618928824,22.103153102295696,2.294184211956429,3.7375428821134835,2.3836109878973044,1.5145705190331753,2.8236395832207393,1.9367375345663869,0.9086475744478024,26.063203511403092,0.11720600351230849
2000-09-01,30.58420156072371,1.0379178207721615,4.950151939646771,21.78456789517425,2.3463669067166255,3.7513961165427006,2.33987581960997,1.4514863975650847,2.779660436215085,1.906182432629846,0.8446485241924471,26.10427245557348,0.11927169463787325
2000-10-01,30.920903732391096,1.0626553679541735,4.9338855065806575,21.830525895142596,2.328383066702031,3.7168714096529136,2.3119616703046617,1.476301128517698,2.874037701458952,1.9317128136983124,0.8381809994794686,25.693705675425022,0.08087503269242435
2000-11-01,31.002995846155375,1.0814987112580094,4.926439434245093,21.725787212006434,2.4156965088310542,3.6775123582202824,2.3411814414277985,1.5151151801923024,2.923706701040009,1.9778475837350564,0.8078298557936016,25.524147556429217,0.08024161066576499
2000-12-01,31.329801257595893,1.0314514534251715,4.952437851252408,21.663733639020354,2.3906981380714782,3.6450553968899544,2.382930255213299,1.5731857517915662,2.898602601844019,1.9534734964976381,0.7893959634862617,25.306579520808246,0.08265467410369684
2001-01-01,31.72213929062504,1.0379179963331,4.9492109170617775,21.592687273805236,2.423856968462681,3.6508854180072903,2.3293592615095657,1.5676141155945833,2.867463591290315,1.955518174775112,0.775150347228406,25.045564527775387,0.08263211753150339
2001-02-01,31.826107368069547,1.0209305410237048,4.980553524194949,21.55999796052166,2.4943315091769103,3.602151735681707,2.2709160911408475,1.6173299105189687,2.864458723426642,1.952835771471482,0.7371286228442053,24.992214578688905,0.08104366324046251
2001-03-01,31.997329354915678,1.0095936586254077,4.958012448377899,21.567765724135153,2.5309623406596375,3.574867097882801,2.3100162754936426,1.589797823066651,2.902334639449297,2.0000521747328794,0.6801198549835504,24.794920385460838,0.08422822221655575
2001-04-01,32.254610318283675,0.9719810022569771,4.92425385543461,21.62782229007354,2.51474139050469,3.5306078171324295,2.3853714120950813,1.5033157255510503,2.8648884617701857,1.9881119098977162,0.6395357934150488,24.702929538031224,0.09183048555376994
2001-05-01,32.42356887357191,0.9457294134024052,4.918021380732928,21.73517116453161,2.54574813300244,3.522441860898804,2.455176676830217,1.5541334851713755,2.830671312231664,2.023184905357874,0.637300102585286,24.29590899927058,0.11294369241289891
2001-06-01,32.654212497548194,0.9166629330941972,4.9510229104684,21.676232428481843,2.550573645574186,3.497629739653778,2.4304597014173597,1.6847409675355314,2.7682621271848262,2.078307125277036,0.6274146406162284,24.022676985542375,0.14180429760603036
2001-07-01,32.616992189010034,0.8779051508951937,4.924268440310744,21.5897697945019,2.615838668387092,3.4681476212774522,2.429602013701509,1.7342079218735063,2.6855101696212955,2.0920493567160734,0.6297803549375545,24.17135710158281,0.16457121718483572
2001-08-01,32.396292292268825,0.8658218546885271,4.93391999480852,21.46818177163458,2.6540938517468233,3.4523942710505096,2.482986106617703,1.9090413025661734,2.663236434830618,2.118907594616758,0.6264258486552344,24.249308139923702,0.17939053659201207
2001-09-01,32.11407172098629,0.9018373084071865,4.993070332831597,21.26820717926986,2.7429661747257086,3.507857163759939,2.6324326023652116,1.8829518854465268,2.7269868139785363,2.156460482468512,0.6267337730517292,24.25119731363226,0.19522724907663802
2001-10-01,31.94785675093782,0.8868404122722993,4.992825060589868,21.00953886823174,2.77664289077226,3.5598486728719227,2.7835780218796304,1.8728977406650624,2.65508370062955,2.20258110429123,0.6185276893838373,24.476401218373468,0.2173778691013036
2001-11-01,31.669329966663426,0.8439696728175256,5.021729751800953,20.996965662604072,2.9415831640544083,3.621621439769737,2.8757095093163425,1.8198612193608261,2.5816852474013507,2.2025737032787363,0.6381948810842301,24.563373083599576,0.22340269824880965
2001-12-01,31.074503834783673,0.8484448938777672,5.086793627075749,21.218255399590834,3.133930137838671,3.660769925354692,2.914301704657283,1.7442121834289146,2.5385361288829316,2.2784549797031217,0.6451349061199254,24.632615901393404,0.22404637729304303
2002-01-01,30.456553752203803,0.8416952536434952,5.245809443313909,20.985760381392655,3.176772084988808,3.660115717597682,2.9928875255393375,1.8651707792082854,2.5483732566657307,2.3647272366598178,0.6341987802832664,24.994591665953124,0.2333441225500957
2002-02-01,30.210481758783185,0.8286144980363394,5.32504451738279,20.902961935043567,3.2433228602436457,3.6453857116934043,3.050861161417019,1.8055645160630427,2.551778004619745,2.4253600687215475,0.6633826531425782,25.110090721406547,0.23715159344659606
2002-03-01,30.190628393151314,0.8152008646718106,5.5350780824202745,20.498231368638717,3.4087663576539957,3.6338200794694533,3.1066464291665152,1.8989497115852523,2.435241692850839,2.439453245504921,0.6716720757330131,25.11910417850777,0.24720752064614301
2002-04-01,29.720189551475826,0.8507279909019566,5.698256829792705,19.914401777728852,3.5614146786868246,3.6251174990655795,3.0848442000368284,2.0833500195295582,2.453716961148957,2.520153267032656,0.687971468660022,25.528341428584287,0.27151432735595166
2002-05-01,29.498970008481688,0.8437553738364314,5.808471171547626,19.897231577177358,3.6611203041371403,3.6005558612491324,3.0880123689060994,2.1249306558828702,2.4628337339640063,2.4873985824743343,0.6776226288502162,25.585646134867872,0.26345159862523493
2002-06-01,29.012532953152732,0.8508621236344555,5.904466168548844,19.496398422090795,3.7965530892989836,3.5592802923340323,3.1791047727632673,2.118435566816221,2.496508711471535,2.491063836800923,0.6825459885338683,26.07147729103629,0.3407707835180495
2002-07-01,28.841707454378554,0.8313912500317172,6.113582112333098,19.216779342865056,3.9423599531891043,3.513248772070179,3.3243153430111954,2.1162169693079202,2.4633472107535472,2.5017134157517034,0.6784609815219671,26.143863999463594,0.31301319532236155
2002-08-01,28.574956505772594,0.8326939293866803,6.319965076977968,18.965958495961395,4.107111367312059,3.461562418778575,3.447727695213949,2.09337457168901,2.3936524456151926,2.5442149812774084,0.6734012801853404,26.28924432528657,0.29613690654325
2002-09-01,28.325238992267305,0.8156418661702795,6.412423121752482,18.828014319694912,4.243655083358754,3.2740444778699778,3.7371492592308435,2.1194778545228172,2.286794623353962,2.5711669818285747,0.663462775523318,26.356073973740944,0.3668566706858229
2002-10-01,27.955985938738376,0.822787664162445,6.550311567983201,18.956735838538027,4.346220865692075,3.150434638207806,3.7982795502893283,2.0891961867367783,2.1601197491100064,2.5793655467309793,0.6518242045125375,26.574595823003552,0.36414242629488736
2002-11-01,28.056456185117653,0.8097010464449367,6.661190399492521,18.694767514668,4.27929398248954,3.054030895205649,3.8410353098127303,2.3203189384301406,2.071415697215755,2.622113689489392,0.6296992345882769,26.599256817179626,0.36072028986577204
2002-12-01,28.21226492071304,0.7759442163005463,6.748168468139826,18.182663545372957,4.230777281150366,2.9172279983397154,3.951598692869116,2.550021636682714,2.085713599197601,2.667515515040012,0.619288401395673,26.679620030070833,0.3791956947276081
2003-01-01,28.49369912741759,0.7370692853568213,6.761901708702158,18.1509782966742,4.244105854664501,2.8012742498422676,4.161764296621173,2.5147060479053263,1.991782768240319,2.6145708143648982,0.6344079532892769,26.465357359329136,0.4283822375923351
2003-02-01,28.461760547599738,0.7428980300567013,6.812377516546636,17.715747138073418,4.293156318672055,2.7418644039328703,4.274511107219229,2.856085923935131,1.9087341883678022,2.561854737639266,0.610795050606575,26.554210873305454,0.46600416404512296
2003-03-01,28.04403022153772,0.7383055492542788,6.811829616537707,17.877656738569836,4.28693953563998,2.6577592317171073,4.419250630268114,2.848213280632219,1.8635012908029571,2.505005286162637,0.6038677436022178,26.856655123345902,0.48698575192931876
2003-04-01,28.19490788645624,0.6975097693898364,6.787184156334156,18.15389059945689,4.341814771103491,2.5936968406101735,4.615634985023583,2.895780802207151,1.836050356781574,2.4773529909956644,0.606808226711667,26.310530689737277,0.48883792519229247
2003-05-01,27.705134442310964,0.7064061488754015,6.751712930947785,18.787985428897684,4.338418407952218,2.528280229938857,4.802895238610824,2.951941168902183,1.7506964630695319,2.4531814524862963,0.5866292078775,26.08878499621451,0.547933883916245
2003-06-01,27.599580592778622,0.7079640743635,6.720923897936335,18.79091747994239,4.3132009950184935,2.46211076224608,5.107371440151888,3.0277263619692563,1.6978257626107103,2.424500128510383,0.5887093550826563,26.025406172130705,0.5337629772589789
2003-07-01,27.44589791030838,0.7533963371126653,6.763050106689931,18.85837545952577,4.2509996221619595,2.4572039498092546,5.3764821199703805,3.006118732152933,1.661362204835599,2.374392773134337,0.5932986448698706,25.828817106208263,0.6306050332206566
2003-08-01,27.686995987018737,0.7603847285649145,6.706753700834436,18.925674031006015,4.156468761275719,2.4308184173782057,5.266215281182183,2.9417194036108634,1.6456278835018512,2.3107022484427606,0.6002466024508456,25.88769805701726,0.6806948977162165
2003-09-01,28.11375364490485,0.73498769553081,6.628363017509545,18.890719450285733,4.047331371581714,2.452105740585939,5.431128834530079,2.8713942465375806,1.6215817789217668,2.241343827416515,0.6029304530677819,25.735763574321695,0.6285963648059982
2003-10-01,28.43621579252925,0.7603827458339766,6.785342242024346,18.2960403926895,4.043540444973865,2.4606183142525357,5.756932339240843,2.9549100468562135,1.6678549643203822,2.199718358746599,0.605865222304416,25.422702570519096,0.6098765657089794
2003-11-01,28.586489259240068,0.7752641107338274,6.712965303896438,18.11115656067154,3.977722166618003,2.441157825167505,6.237347205485906,2.7835360655317753,1.67596880208065,2.1253133539661335,0.6038352186163399,25.36097439854527,0.6082697294465526
2003-12-01,28.75966051254351,0.8032933489441391,6.609732768796646,17.91087652471602,3.9783137175942294,2.435951753881521,6.39206574257297,2.598905348044309,1.706138866427607,2.0629559082415643,0.6256850347244514,25.528269698362852,0.5881507751501859
2004-01-01,28.730064361637435,0.811361514318233,6.478176147680496,18.137325843179166,3.890855665429111,2.4301194914559705,6.526019681359723,2.5050208829824805,1.725953001490275,2.0428592354003867,0.626092932310704,25.54836076861083,0.547790474145199
2004-02-01,28.999133723499188,0.7885629463158991,6.3982090294334775,17.981222739908826,3.904657810086159,2.374005005909163,6.99607389383958,2.4051034588527735,1.7846164108967324,2.036873165915503,0.6177290333395848,25.204174784818306,0.5096379971848092
2004-03-01,29.594960872525448,0.7968765991736632,6.293879198944424,17.603648376555476,3.914349631274717,2.3637018928696123,7.155690711426982,2.2471179600669053,1.8680250424880185,2.0272639222405995,0.624902677555597,25.02918542632366,0.48039768855489035
2004-04-01,29.645024384961058,0.8127633738655423,6.2346635845198435,17.284685562957232,4.023791898096774,2.3612027549082666,7.421404234256703,2.067582824325591,1.9778707484686497,1.986489854258022,0.6649263875255776,25.05227839407505,0.4673159977816936
2004-05-01,30.286128074982585,0.8174189606810419,6.321264499763051,16.132779905116923,4.105421145831227,2.354384685434839,7.75528205926194,1.9826414664697882,2.047529611509262,1.9727077464627316,0.7013474476399874,24.98607738295404,0.5370170138925837
2004-06-01,30.870529544836064,0.820249131530074,6.303242508654821,16.10625000851839,4.280575529966444,2.3475126553604952,7.641051981697493,1.7761900765288006,2.157899821608806,1.9688161321996445,0.7191077631806126,24.55438239690176,0.4541924490165912
2004-07-01,31.39846832133209,0.7850060373908664,6.117225579204032,15.855169347760153,4.411468860624584,2.3269800730217116,7.810947686797523,1.7470213186919594,2.2998360978393424,1.9957526740306981,0.7366851916431312,24.098057172766804,0.4173816388971081
2004-08-01,31.69221804259944,0.7633631634493234,6.0606700039581805,15.561034355578755,4.620845898306829,2.3113480399362136,8.200065173140617,1.7942747534259242,2.3281060357851255,1.9407186651810335,0.7810037651253084,23.567208671527727,0.37914343198552025
2004-09-01,31.75910535780844,0.7867178623160794,6.060984249530413,15.694132537195848,4.763076424236003,2.308083490030384,7.981293209879176,1.8797311358147912,2.3822701942972766,1.9779403308881267,0.7845676676847074,23.227099010682423,0.39499852963632454